EWG12S EGKK-EDDH

Flight info

Callsign EWG12S
Flight time 1h 11m
Altitude 37000
Route FRANE M604 PAAVO Q295 SOMVA DCT MAVAS DCT PARYD DCT GASTU DCT OSTOR/N0361F230 T904 RIBSO RIBSO7A
Aircraft A320/M-SDE3FGHIRWY/LB1

Departure

Time 2026-05-06 11:09
Airport London Gatwick Airport (EGKK)

Arrival

Time 2026-05-06 12:21
Airport Hamburg Helmut Schmidt Airport (EDDH)
Time Latitude Longitude Altitude Speed Heading
2026-05-06 10:46 51.15308 -0.18000 210 ft 0 kts 348°
2026-05-06 10:59 51.15304 -0.17998 211 ft 3 kts 348°
2026-05-06 10:59 51.15279 -0.17990 208 ft 4 kts 348°
2026-05-06 11:00 51.15259 -0.17983 214 ft 4 kts 343°
2026-05-06 11:00 51.15239 -0.17966 214 ft 4 kts 297°
2026-05-06 11:00 51.15235 -0.17930 213 ft 4 kts 260°
2026-05-06 11:00 51.15239 -0.17899 211 ft 0 kts 257°
2026-05-06 11:03 51.15236 -0.17922 214 ft 6 kts 257°
2026-05-06 11:03 51.15223 -0.18020 207 ft 12 kts 257°
2026-05-06 11:03 51.15204 -0.18158 205 ft 13 kts 258°
2026-05-06 11:03 51.15188 -0.18289 214 ft 12 kts 266°
2026-05-06 11:04 51.15165 -0.18478 211 ft 22 kts 258°
2026-05-06 11:04 51.15136 -0.18706 205 ft 20 kts 255°
2026-05-06 11:04 51.15106 -0.18916 205 ft 18 kts 258°
2026-05-06 11:04 51.15081 -0.19101 210 ft 16 kts 257°
2026-05-06 11:05 51.15057 -0.19276 216 ft 18 kts 257°
2026-05-06 11:05 51.15023 -0.19515 210 ft 25 kts 257°
2026-05-06 11:05 51.14984 -0.19804 215 ft 28 kts 254°
2026-05-06 11:05 51.14940 -0.20123 214 ft 30 kts 257°
2026-05-06 11:06 51.14894 -0.20440 210 ft 25 kts 257°
2026-05-06 11:06 51.14858 -0.20714 205 ft 26 kts 257°
2026-05-06 11:06 51.14818 -0.20999 206 ft 27 kts 258°
2026-05-06 11:06 51.14775 -0.21240 205 ft 20 kts 260°
2026-05-06 11:07 51.14723 -0.21402 208 ft 15 kts 189°
2026-05-06 11:07 51.14639 -0.21339 208 ft 13 kts 159°
2026-05-06 11:07 51.14620 -0.21332 212 ft 0 kts 167°
2026-05-06 11:07 51.14610 -0.21329 205 ft 5 kts 167°
2026-05-06 11:08 51.14548 -0.21287 212 ft 14 kts 142°
2026-05-06 11:08 51.14524 -0.21151 206 ft 0 kts 78°
2026-05-06 11:08 51.14524 -0.21150 206 ft 0 kts 78°
2026-05-06 11:08 51.14542 -0.21019 216 ft 42 kts 77°
2026-05-06 11:09 51.14659 -0.20191 213 ft 108 kts 77°
2026-05-06 11:09 51.14860 -0.18752 208 ft 157 kts 76°
2026-05-06 11:09 51.15104 -0.16931 600 ft 171 kts 74°
2026-05-06 11:09 51.15350 -0.15070 1405 ft 171 kts 73°
2026-05-06 11:10 51.15613 -0.13160 1927 ft 186 kts 73°
2026-05-06 11:10 51.15913 -0.11027 2247 ft 210 kts 73°
2026-05-06 11:10 51.16252 -0.08617 2675 ft 235 kts 74°
2026-05-06 11:10 51.16622 -0.05975 3313 ft 251 kts 74°
2026-05-06 11:11 51.16903 -0.03179 4170 ft 262 kts 85°
2026-05-06 11:11 51.16855 -0.00220 4897 ft 271 kts 87°
2026-05-06 11:11 51.16797 0.02816 5165 ft 275 kts 88°
2026-05-06 11:11 51.16736 0.05841 5055 ft 272 kts 88°
2026-05-06 11:12 51.16673 0.08844 5025 ft 270 kts 88°
2026-05-06 11:12 51.16613 0.11837 5027 ft 270 kts 87°
2026-05-06 11:12 51.16557 0.14829 5032 ft 271 kts 87°
2026-05-06 11:12 51.16524 0.17819 5036 ft 270 kts 86°
2026-05-06 11:13 51.16529 0.20804 5052 ft 270 kts 85°
2026-05-06 11:13 51.16547 0.23801 5044 ft 270 kts 85°
2026-05-06 11:13 51.16564 0.26788 5052 ft 270 kts 85°
2026-05-06 11:13 51.16578 0.29737 5055 ft 269 kts 85°
2026-05-06 11:14 51.16587 0.32757 5053 ft 270 kts 85°
2026-05-06 11:14 51.16592 0.35750 5061 ft 270 kts 85°
2026-05-06 11:14 51.16595 0.38734 5055 ft 269 kts 85°
2026-05-06 11:14 51.16595 0.41714 5056 ft 269 kts 85°
2026-05-06 11:15 51.16594 0.44704 5058 ft 269 kts 86°
2026-05-06 11:15 51.16592 0.47685 5071 ft 270 kts 86°
2026-05-06 11:15 51.16769 0.50616 5061 ft 263 kts 70°
2026-05-06 11:15 51.17565 0.53175 5056 ft 256 kts 48°
2026-05-06 11:16 51.18850 0.55024 5055 ft 251 kts 28°
2026-05-06 11:16 51.20478 0.56038 5055 ft 248 kts 11°
2026-05-06 11:16 51.22165 0.56652 5053 ft 249 kts 12°
2026-05-06 11:16 51.23832 0.57267 5050 ft 248 kts 12°
2026-05-06 11:17 51.25536 0.57899 5046 ft 249 kts 12°
2026-05-06 11:17 51.27224 0.58529 5042 ft 249 kts 12°
2026-05-06 11:17 51.28883 0.59154 5038 ft 248 kts 12°
2026-05-06 11:17 51.30568 0.59787 5033 ft 249 kts 12°
2026-05-06 11:18 51.32285 0.60430 5476 ft 256 kts 12°
2026-05-06 11:18 51.34021 0.61081 5881 ft 256 kts 13°
2026-05-06 11:18 51.35749 0.61729 5967 ft 254 kts 13°
2026-05-06 11:18 51.37472 0.62372 5973 ft 254 kts 13°
2026-05-06 11:19 51.39202 0.63018 6002 ft 256 kts 13°
2026-05-06 11:19 51.40959 0.63684 6754 ft 258 kts 13°
2026-05-06 11:19 51.42716 0.64352 7638 ft 261 kts 13°
2026-05-06 11:19 51.44511 0.65034 8446 ft 267 kts 12°
2026-05-06 11:20 51.46332 0.65725 9287 ft 271 kts 12°
2026-05-06 11:20 51.48184 0.66428 10070 ft 277 kts 11°
2026-05-06 11:20 51.50122 0.67163 10444 ft 297 kts 12°
2026-05-06 11:20 51.52210 0.67957 10778 ft 316 kts 11°
2026-05-06 11:21 51.54378 0.68782 11425 ft 324 kts 12°
2026-05-06 11:21 51.56594 0.69626 12107 ft 330 kts 11°
2026-05-06 11:21 51.58844 0.70480 12844 ft 334 kts 11°
2026-05-06 11:21 51.61126 0.71345 13538 ft 339 kts 11°
2026-05-06 11:22 51.63442 0.72220 14170 ft 344 kts 11°
2026-05-06 11:22 51.65786 0.73108 14797 ft 348 kts 10°
2026-05-06 11:22 51.68153 0.74009 15405 ft 352 kts 11°
2026-05-06 11:22 51.70545 0.74926 16022 ft 356 kts 11°
2026-05-06 11:23 51.72969 0.75857 16640 ft 360 kts 11°
2026-05-06 11:23 51.75376 0.76782 17107 ft 362 kts 11°
2026-05-06 11:23 51.77843 0.77728 17480 ft 366 kts 11°
2026-05-06 11:23 51.80308 0.78835 18107 ft 371 kts 19°
2026-05-06 11:24 51.82654 0.80653 18645 ft 378 kts 30°
2026-05-06 11:24 51.84796 0.83166 19140 ft 384 kts 39°
2026-05-06 11:24 51.86551 0.86394 19664 ft 389 kts 58°
2026-05-06 11:24 51.87540 0.90471 20154 ft 394 kts 79°
2026-05-06 11:25 51.87714 0.94900 20701 ft 396 kts 89°
2026-05-06 11:25 51.87895 0.99311 21188 ft 399 kts 83°
2026-05-06 11:25 51.88207 1.02316 21544 ft 402 kts 78°
2026-05-06 11:25 51.89336 1.08041 22225 ft 406 kts 68°
2026-05-06 11:26 51.90447 1.12255 22725 ft 409 kts 66°
2026-05-06 11:26 51.91608 1.16476 23209 ft 412 kts 66°
2026-05-06 11:26 51.92408 1.19339 23529 ft 414 kts 66°
2026-05-06 11:26 51.93600 1.23604 23950 ft 417 kts 66°
2026-05-06 11:27 51.94791 1.27907 24357 ft 419 kts 66°
2026-05-06 11:27 51.95979 1.32254 24763 ft 422 kts 66°
2026-05-06 11:27 51.97146 1.36557 25147 ft 424 kts 66°
2026-05-06 11:27 51.98329 1.40949 25546 ft 426 kts 66°
2026-05-06 11:28 51.99518 1.45375 25922 ft 428 kts 67°
2026-05-06 11:28 52.00707 1.49815 26313 ft 430 kts 67°
2026-05-06 11:28 52.01904 1.54275 26688 ft 433 kts 67°
2026-05-06 11:28 52.03109 1.58765 27058 ft 435 kts 67°
2026-05-06 11:29 52.04317 1.63278 27418 ft 437 kts 67°
2026-05-06 11:29 52.05529 1.67830 27760 ft 440 kts 67°
2026-05-06 11:29 52.06742 1.72398 28125 ft 442 kts 67°
2026-05-06 11:29 52.07966 1.77008 28482 ft 444 kts 67°
2026-05-06 11:30 52.09196 1.81641 28839 ft 446 kts 67°
2026-05-06 11:30 52.10425 1.86273 29190 ft 448 kts 67°
2026-05-06 11:30 52.11664 1.90953 29545 ft 450 kts 67°
2026-05-06 11:30 52.12904 1.95650 29877 ft 453 kts 67°
2026-05-06 11:31 52.14144 2.00357 30199 ft 453 kts 67°
2026-05-06 11:31 52.15383 2.05082 30505 ft 454 kts 68°
2026-05-06 11:31 52.16618 2.09817 30780 ft 456 kts 68°
2026-05-06 11:31 52.17860 2.14585 31046 ft 457 kts 68°
2026-05-06 11:32 52.19107 2.19365 31309 ft 459 kts 68°
2026-05-06 11:32 52.20352 2.24143 31651 ft 458 kts 68°
2026-05-06 11:32 52.21593 2.28915 32033 ft 457 kts 68°
2026-05-06 11:32 52.22832 2.33686 32397 ft 456 kts 67°
2026-05-06 11:33 52.24064 2.38440 32770 ft 455 kts 68°
2026-05-06 11:33 52.25287 2.43190 33133 ft 454 kts 68°
2026-05-06 11:33 52.26509 2.47938 33488 ft 453 kts 68°
2026-05-06 11:33 52.27728 2.52683 33780 ft 454 kts 68°
2026-05-06 11:34 52.28949 2.57440 34095 ft 453 kts 68°
2026-05-06 11:34 52.30168 2.62191 34350 ft 453 kts 68°
2026-05-06 11:34 52.31198 2.66976 34604 ft 453 kts 75°
2026-05-06 11:34 52.32071 2.71922 34811 ft 454 kts 75°
2026-05-06 11:35 52.32956 2.76936 35068 ft 454 kts 75°
2026-05-06 11:35 52.33815 2.81835 35283 ft 454 kts 75°
2026-05-06 11:35 52.34686 2.86808 35521 ft 454 kts 75°
2026-05-06 11:35 52.35556 2.91781 35731 ft 455 kts 75°
2026-05-06 11:36 52.36425 2.96762 35960 ft 455 kts 75°
2026-05-06 11:36 52.37287 3.01735 36166 ft 455 kts 75°
2026-05-06 11:36 52.38147 3.06722 36377 ft 455 kts 75°
2026-05-06 11:36 52.39005 3.11713 36576 ft 456 kts 75°
2026-05-06 11:37 52.39864 3.16714 36766 ft 456 kts 75°
2026-05-06 11:37 52.40726 3.21717 36909 ft 457 kts 75°
2026-05-06 11:37 52.41590 3.26712 36950 ft 455 kts 75°
2026-05-06 11:38 52.43309 3.36673 36948 ft 454 kts 75°
2026-05-06 11:38 52.45012 3.46636 36941 ft 454 kts 75°
2026-05-06 11:39 52.46708 3.56613 36942 ft 454 kts 76°
2026-05-06 11:39 52.48387 3.66610 36933 ft 455 kts 76°
2026-05-06 11:40 52.50063 3.76626 36932 ft 455 kts 76°
2026-05-06 11:40 52.51727 3.86584 36930 ft 455 kts 76°
2026-05-06 11:41 52.53388 3.96621 36932 ft 455 kts 76°
2026-05-06 11:41 52.55036 4.06658 36919 ft 455 kts 76°
2026-05-06 11:42 52.56682 4.16704 36927 ft 455 kts 76°
2026-05-06 11:42 52.58317 4.26755 36921 ft 455 kts 76°
2026-05-06 11:43 52.59949 4.36816 36925 ft 455 kts 76°
2026-05-06 11:43 52.61568 4.46871 36918 ft 455 kts 76°
2026-05-06 11:44 52.63979 4.61977 36917 ft 455 kts 77°
2026-05-06 11:44 52.65576 4.72047 36916 ft 455 kts 77°
2026-05-06 11:45 52.67150 4.82066 36927 ft 454 kts 77°
2026-05-06 11:45 52.68720 4.92148 36920 ft 455 kts 77°
2026-05-06 11:46 52.70301 5.02259 36901 ft 455 kts 77°
2026-05-06 11:46 52.71869 5.12362 36898 ft 455 kts 77°
2026-05-06 11:47 52.73422 5.22496 36897 ft 455 kts 78°
2026-05-06 11:47 52.74976 5.32636 36900 ft 456 kts 77°
2026-05-06 11:48 52.76616 5.42751 36904 ft 456 kts 76°
2026-05-06 11:48 52.78299 5.52851 36904 ft 456 kts 76°
2026-05-06 11:49 52.79972 5.62951 36901 ft 455 kts 76°
2026-05-06 11:49 52.81625 5.73058 36901 ft 455 kts 76°
2026-05-06 11:50 52.83256 5.83175 36906 ft 455 kts 77°
2026-05-06 11:50 52.84869 5.93297 36904 ft 455 kts 77°
2026-05-06 11:51 52.86488 6.03430 36904 ft 456 kts 77°
2026-05-06 11:51 52.88108 6.13573 36897 ft 456 kts 77°
2026-05-06 11:52 52.89712 6.23736 36904 ft 456 kts 77°
2026-05-06 11:52 52.91300 6.33899 36900 ft 456 kts 77°
2026-05-06 11:53 52.92880 6.44052 36900 ft 455 kts 77°
2026-05-06 11:53 52.94454 6.54238 36596 ft 455 kts 77°
2026-05-06 11:54 52.95237 6.59313 36321 ft 453 kts 77°
2026-05-06 11:54 52.96017 6.64370 36066 ft 453 kts 77°
2026-05-06 11:54 52.96796 6.69437 35815 ft 452 kts 77°
2026-05-06 11:54 52.97567 6.74476 35562 ft 450 kts 77°
2026-05-06 11:55 52.98332 6.79495 35314 ft 447 kts 77°
2026-05-06 11:55 52.99089 6.84465 34874 ft 443 kts 77°
2026-05-06 11:55 52.99839 6.89406 34337 ft 441 kts 77°
2026-05-06 11:55 53.00580 6.94321 33788 ft 439 kts 77°
2026-05-06 11:56 53.01316 6.99222 33218 ft 435 kts 77°
2026-05-06 11:56 53.02044 7.04077 32703 ft 431 kts 78°
2026-05-06 11:56 53.02752 7.08826 32196 ft 427 kts 78°
2026-05-06 11:56 53.03462 7.13598 31672 ft 423 kts 78°
2026-05-06 11:57 53.04162 7.18340 31188 ft 419 kts 78°
2026-05-06 11:57 53.04850 7.23026 30690 ft 416 kts 78°
2026-05-06 11:57 53.05532 7.27677 30211 ft 413 kts 78°
2026-05-06 11:57 53.06211 7.32289 29703 ft 410 kts 78°
2026-05-06 11:58 53.06885 7.36866 29239 ft 404 kts 78°
2026-05-06 11:58 53.07549 7.41375 28780 ft 399 kts 78°
2026-05-06 11:58 53.08200 7.45835 28352 ft 394 kts 78°
2026-05-06 11:58 53.08838 7.50233 27920 ft 389 kts 78°
2026-05-06 11:59 53.09466 7.54582 27492 ft 384 kts 78°
2026-05-06 11:59 53.10085 7.58885 27056 ft 380 kts 78°
2026-05-06 11:59 53.10699 7.63143 26631 ft 377 kts 78°
2026-05-06 11:59 53.11309 7.67369 26196 ft 374 kts 77°
2026-05-06 12:00 53.11913 7.71553 25766 ft 370 kts 79°
2026-05-06 12:00 53.12511 7.75707 25317 ft 368 kts 78°
2026-05-06 12:00 53.13102 7.79844 24876 ft 366 kts 78°
2026-05-06 12:00 53.13686 7.83963 24409 ft 365 kts 78°
2026-05-06 12:01 53.14268 7.88065 23951 ft 363 kts 77°
2026-05-06 12:01 53.14846 7.92151 23491 ft 362 kts 78°
2026-05-06 12:01 53.15424 7.96233 22973 ft 361 kts 77°
2026-05-06 12:01 53.15998 8.00300 22520 ft 358 kts 78°
2026-05-06 12:02 53.16555 8.04262 22080 ft 356 kts 78°
2026-05-06 12:02 53.17117 8.08266 21635 ft 353 kts 77°
2026-05-06 12:02 53.17673 8.12246 21190 ft 351 kts 78°
2026-05-06 12:02 53.18222 8.16191 20750 ft 349 kts 78°
2026-05-06 12:03 53.18767 8.20116 20333 ft 346 kts 78°
2026-05-06 12:03 53.19306 8.24013 19909 ft 344 kts 79°
2026-05-06 12:03 53.19841 8.27895 19488 ft 343 kts 78°
2026-05-06 12:03 53.20375 8.31778 19063 ft 344 kts 78°
2026-05-06 12:04 53.20908 8.35663 18640 ft 343 kts 79°
2026-05-06 12:04 53.21439 8.39532 18224 ft 341 kts 79°
2026-05-06 12:04 53.21967 8.43385 17768 ft 339 kts 78°
2026-05-06 12:04 53.22489 8.47207 17354 ft 336 kts 79°
2026-05-06 12:05 53.23003 8.50986 16942 ft 332 kts 78°
2026-05-06 12:05 53.23511 8.54730 16554 ft 329 kts 78°
2026-05-06 12:05 53.24014 8.58437 16171 ft 326 kts 78°
2026-05-06 12:05 53.24514 8.62119 15785 ft 325 kts 78°
2026-05-06 12:06 53.25010 8.65791 15403 ft 323 kts 78°
2026-05-06 12:06 53.25501 8.69449 15025 ft 322 kts 78°
2026-05-06 12:06 53.25988 8.73090 14647 ft 321 kts 78°
2026-05-06 12:06 53.26474 8.76731 14274 ft 320 kts 78°
2026-05-06 12:07 53.26960 8.80361 13892 ft 320 kts 78°
2026-05-06 12:07 53.27443 8.83993 13493 ft 320 kts 78°
2026-05-06 12:07 53.27919 8.87600 13148 ft 317 kts 78°
2026-05-06 12:07 53.28391 8.91188 12786 ft 315 kts 78°
2026-05-06 12:08 53.28859 8.94757 12388 ft 314 kts 78°
2026-05-06 12:08 53.29326 8.98309 12030 ft 312 kts 78°
2026-05-06 12:08 53.29788 9.01828 11638 ft 311 kts 78°
2026-05-06 12:08 53.30248 9.05342 11329 ft 308 kts 77°
2026-05-06 12:09 53.30703 9.08812 10945 ft 302 kts 77°
2026-05-06 12:09 53.31143 9.12172 10539 ft 290 kts 77°
2026-05-06 12:09 53.31564 9.15394 10169 ft 277 kts 77°
2026-05-06 12:09 53.31831 9.17454 9941 ft 272 kts 77°
2026-05-06 12:10 53.32231 9.20549 9554 ft 272 kts 77°
2026-05-06 12:10 53.32630 9.23629 9176 ft 270 kts 77°
2026-05-06 12:10 53.33152 9.27670 8676 ft 267 kts 78°
2026-05-06 12:10 53.33543 9.30718 8302 ft 267 kts 79°
2026-05-06 12:11 53.33930 9.33754 7929 ft 267 kts 78°
2026-05-06 12:11 53.34193 9.35816 7663 ft 268 kts 78°
2026-05-06 12:11 53.34583 9.38863 7290 ft 268 kts 78°
2026-05-06 12:11 53.35053 9.41845 6936 ft 266 kts 70°
2026-05-06 12:12 53.35929 9.44557 6674 ft 263 kts 56°
2026-05-06 12:12 53.37098 9.46895 6382 ft 260 kts 51°
2026-05-06 12:12 53.38246 9.49164 5900 ft 257 kts 52°
2026-05-06 12:12 53.39384 9.51450 5266 ft 254 kts 51°
2026-05-06 12:13 53.40490 9.53640 5069 ft 236 kts 51°
2026-05-06 12:13 53.41516 9.55676 4776 ft 225 kts 52°
2026-05-06 12:13 53.42514 9.57664 4373 ft 220 kts 53°
2026-05-06 12:13 53.43480 9.59583 4076 ft 210 kts 52°
2026-05-06 12:14 53.44405 9.61424 3690 ft 203 kts 51°
2026-05-06 12:14 53.45306 9.63218 3238 ft 199 kts 52°
2026-05-06 12:14 53.46187 9.64977 3005 ft 194 kts 52°
2026-05-06 12:14 53.47061 9.66723 3006 ft 197 kts 52°
2026-05-06 12:15 53.47939 9.68475 3014 ft 193 kts 52°
2026-05-06 12:15 53.48787 9.70169 3004 ft 185 kts 52°
2026-05-06 12:15 53.49601 9.71796 3007 ft 179 kts 52°
2026-05-06 12:15 53.50397 9.73391 3003 ft 177 kts 52°
2026-05-06 12:16 53.51174 9.74947 3017 ft 170 kts 52°
2026-05-06 12:16 53.51905 9.76409 3010 ft 157 kts 52°
2026-05-06 12:16 53.52569 9.77740 2922 ft 145 kts 52°
2026-05-06 12:16 53.53206 9.79019 2773 ft 141 kts 52°
2026-05-06 12:17 53.53831 9.80274 2606 ft 141 kts 52°
2026-05-06 12:17 53.54469 9.81554 2429 ft 143 kts 52°
2026-05-06 12:17 53.55102 9.82825 2230 ft 141 kts 50°
2026-05-06 12:17 53.55721 9.84070 2037 ft 138 kts 51°
2026-05-06 12:18 53.56332 9.85300 1847 ft 135 kts 51°
2026-05-06 12:18 53.56930 9.86502 1701 ft 133 kts 50°
2026-05-06 12:18 53.57523 9.87692 1513 ft 133 kts 50°
2026-05-06 12:18 53.58129 9.88912 1294 ft 136 kts 51°
2026-05-06 12:19 53.58745 9.90139 1078 ft 138 kts 48°
2026-05-06 12:19 53.59366 9.91359 905 ft 136 kts 50°
2026-05-06 12:19 53.59954 9.92614 673 ft 137 kts 50°
2026-05-06 12:19 53.60561 9.93836 478 ft 136 kts 49°
2026-05-06 12:20 53.61167 9.95028 353 ft 135 kts 51°
2026-05-06 12:20 53.61760 9.96241 180 ft 129 kts 51°
2026-05-06 12:20 53.62322 9.97373 54 ft 118 kts 50°
2026-05-06 12:20 53.62764 9.98265 50 ft 76 kts 51°
2026-05-06 12:21 53.63026 9.98797 49 ft 51 kts 50°
2026-05-06 12:21 53.63225 9.99200 52 ft 39 kts 51°
2026-05-06 12:21 53.63289 9.99546 50 ft 30 kts 98°
2026-05-06 12:21 53.63280 9.99631 50 ft 0 kts 99°
2026-05-06 12:22 53.63276 9.99678 50 ft 7 kts 99°
2026-05-06 12:23 53.63226 9.99761 50 ft 15 kts 153°
2026-05-06 12:23 53.63128 9.99846 50 ft 16 kts 153°
2026-05-06 12:23 53.63024 9.99935 50 ft 17 kts 153°
2026-05-06 12:23 53.62945 10.00069 51 ft 14 kts 126°
2026-05-06 12:24 53.62902 10.00185 51 ft 7 kts 123°
2026-05-06 12:24 53.62892 10.00212 49 ft 0 kts 122°
2026-05-06 12:24 53.62892 10.00213 49 ft 0 kts 122°